When you browse on this site, cookies collect data to enhance your experience and personalize the content and advertising you see.
Visit our Privacy Policy to learn more. By continuing to use the site, you agree to this use of cookies and data.
  • în România
  • Lista ţărilor
  • Pe 7 zile
  • Temperatura apei
  • Meteo pe hartă
  • Widget-uri
  • user-avatar
    Intrare

    Meteo pe oră la Seyðisfjörður

    Astăzi, 7 Iunie, Duminică

    Timp Temperatura Precipitaţii Vânt Presiune Umiditate
    00:00 +3°C° 0 mm 2 m/s 757 mmHg 84%
    01:00 +3°C° 0 mm 2 m/s 757 mmHg 83%
    02:00 +4°C° 0 mm 1 m/s 756 mmHg 82%
    03:00 +4°C° 0 mm 1 m/s 756 mmHg 80%
    04:00 +5°C° 0 mm 1 m/s 756 mmHg 78%
    05:00 +5°C° 0 mm 1 m/s 756 mmHg 76%
    06:00 +6°C° 0 mm 1 m/s 756 mmHg 73%
    07:00 +7°C° 0 mm 1 m/s 756 mmHg 69%
    08:00 +7°C° 0 mm 2 m/s 756 mmHg 66%
    09:00 +8°C° 0 mm 2 m/s 756 mmHg 63%
    10:00 +9°C° 0 mm 2 m/s 755 mmHg 60%
    11:00 +10°C° 0 mm 2 m/s 755 mmHg 58%
    12:00 +10°C° 0 mm 2 m/s 755 mmHg 58%
    13:00 +10°C° 0 mm 3 m/s 755 mmHg 58%
    14:00 +11°C° 0 mm 3 m/s 755 mmHg 58%
    15:00 +11°C° 0 mm 3 m/s 755 mmHg 60%
    16:00 +11°C° 0 mm 3 m/s 754 mmHg 61%
    17:00 +11°C° 0 mm 4 m/s 754 mmHg 63%
    18:00 +11°C° 0 mm 4 m/s 754 mmHg 65%
    19:00 +10°C° 0 mm 3 m/s 754 mmHg 68%
    20:00 +10°C° 0 mm 3 m/s 754 mmHg 71%
    21:00 +10°C° 0 mm 3 m/s 754 mmHg 73%
    22:00 +9°C° 0 mm 3 m/s 754 mmHg 74%
    23:00 +9°C° 0 mm 3 m/s 753 mmHg 76%

    Mâine, 8 Iunie, Luni

    Timp Temperatura Precipitaţii Vânt Presiune Umiditate
    00:00 +9°C° 0 mm 3 m/s 753 mmHg 76%
    01:00 +8°C° 0 mm 2 m/s 753 mmHg 77%
    02:00 +8°C° 0 mm 2 m/s 753 mmHg 78%
    03:00 +9°C° 0 mm 2 m/s 753 mmHg 74%
    04:00 +10°C° 0 mm 2 m/s 752 mmHg 70%
    05:00 +12°C° 0 mm 2 m/s 752 mmHg 66%
    06:00 +13°C° 0 mm 2 m/s 752 mmHg 63%
    07:00 +13°C° 0 mm 3 m/s 752 mmHg 60%
    08:00 +13°C° 0 mm 3 m/s 752 mmHg 57%
    09:00 +14°C° 0 mm 4 m/s 751 mmHg 56%
    10:00 +15°C° 0 mm 4 m/s 751 mmHg 56%
    11:00 +16°C° 0 mm 5 m/s 750 mmHg 55%
    12:00 +15°C° 0 mm 5 m/s 750 mmHg 61%
    13:00 +14°C° 0 mm 6 m/s 749 mmHg 66%
    14:00 +14°C° 0 mm 6 m/s 749 mmHg 71%
    15:00 +13°C° 0.1 mm 6 m/s 749 mmHg 75%
    16:00 +12°C° 0.1 mm 5 m/s 748 mmHg 78%
    17:00 +12°C° 0.1 mm 5 m/s 748 mmHg 82%
    18:00 +12°C° 0.1 mm 5 m/s 748 mmHg 83%
    19:00 +10°C° 0.1 mm 5 m/s 747 mmHg 85%
    20:00 +10°C° 0.1 mm 5 m/s 747 mmHg 86%
    21:00 +10°C° 0.3 mm 5 m/s 747 mmHg 88%
    22:00 +9°C° 0.3 mm 5 m/s 747 mmHg 90%
    23:00 +9°C° 0.3 mm 5 m/s 746 mmHg 92%

    Poimâine, 9 Iunie, Marţi

    Timp Temperatura Precipitaţii Vânt Presiune Umiditate
    00:00 +10°C° 0.4 mm 4 m/s 746 mmHg 92%
    01:00 +10°C° 0.4 mm 4 m/s 746 mmHg 93%
    02:00 +8°C° 0.4 mm 4 m/s 746 mmHg 94%
    03:00 +10°C° 0 mm 4 m/s 746 mmHg 92%
    04:00 +10°C° 0 mm 4 m/s 747 mmHg 91%
    05:00 +10°C° 0 mm 4 m/s 747 mmHg 90%
    06:00 +11°C° 0 mm 4 m/s 747 mmHg 87%
    07:00 +11°C° 0 mm 4 m/s 748 mmHg 83%
    08:00 +11°C° 0 mm 3 m/s 748 mmHg 80%
    09:00 +12°C° 0 mm 4 m/s 749 mmHg 72%
    10:00 +13°C° 0 mm 4 m/s 749 mmHg 64%
    11:00 +14°C° 0 mm 4 m/s 749 mmHg 57%
    12:00 +14°C° 0 mm 4 m/s 750 mmHg 57%
    13:00 +14°C° 0 mm 4 m/s 750 mmHg 58%
    14:00 +14°C° 0 mm 4 m/s 751 mmHg 58%
    15:00 +14°C° 0 mm 4 m/s 751 mmHg 62%
    16:00 +13°C° 0 mm 3 m/s 752 mmHg 65%
    17:00 +13°C° 0 mm 3 m/s 753 mmHg 69%
    18:00 +12°C° 0.1 mm 3 m/s 753 mmHg 73%
    19:00 +12°C° 0.1 mm 3 m/s 754 mmHg 78%
    20:00 +11°C° 0.1 mm 3 m/s 755 mmHg 82%
    21:00 +10°C° 0.1 mm 3 m/s 755 mmHg 85%
    22:00 +10°C° 0.1 mm 2 m/s 756 mmHg 87%
    23:00 +9°C° 0.1 mm 2 m/s 757 mmHg 89%

    10 Iunie, Miercuri

    Timp Temperatura Precipitaţii Vânt Presiune Umiditate
    00:00 +9°C° 0.1 mm 2 m/s 757 mmHg 90%
    01:00 +9°C° 0.1 mm 2 m/s 758 mmHg 91%
    02:00 +9°C° 0.1 mm 2 m/s 758 mmHg 92%
    03:00 +9°C° 0.1 mm 2 m/s 759 mmHg 91%
    04:00 +9°C° 0.1 mm 2 m/s 760 mmHg 90%
    05:00 +9°C° 0.1 mm 2 m/s 761 mmHg 89%
    06:00 +10°C° 0 mm 2 m/s 761 mmHg 86%
    07:00 +10°C° 0 mm 2 m/s 762 mmHg 83%
    08:00 +12°C° 0 mm 2 m/s 763 mmHg 79%
    09:00 +12°C° 0 mm 2 m/s 763 mmHg 78%
    10:00 +12°C° 0 mm 3 m/s 764 mmHg 76%
    11:00 +12°C° 0 mm 3 m/s 764 mmHg 74%
    12:00 +13°C° 0 mm 3 m/s 765 mmHg 72%
    13:00 +13°C° 0 mm 3 m/s 765 mmHg 71%
    14:00 +13°C° 0 mm 4 m/s 765 mmHg 69%
    15:00 +13°C° 0 mm 4 m/s 765 mmHg 68%
    16:00 +13°C° 0 mm 4 m/s 766 mmHg 68%
    17:00 +14°C° 0 mm 4 m/s 766 mmHg 67%
    18:00 +13°C° 0 mm 4 m/s 766 mmHg 69%
    19:00 +13°C° 0 mm 4 m/s 766 mmHg 70%
    20:00 +13°C° 0 mm 4 m/s 767 mmHg 72%
    21:00 +12°C° 0 mm 4 m/s 767 mmHg 76%
    22:00 +11°C° 0 mm 4 m/s 767 mmHg 80%
    23:00 +10°C° 0 mm 4 m/s 767 mmHg 83%

    11 Iunie, Joi

    Timp Temperatura Precipitaţii Vânt Presiune Umiditate
    00:00 +10°C° 0 mm 4 m/s 767 mmHg 84%
    01:00 +8°C° 0 mm 4 m/s 767 mmHg 84%
    02:00 +8°C° 0 mm 4 m/s 767 mmHg 84%
    03:00 +10°C° 0 mm 4 m/s 767 mmHg 80%
    04:00 +11°C° 0 mm 4 m/s 767 mmHg 77%
    05:00 +11°C° 0 mm 4 m/s 767 mmHg 73%
    06:00 +13°C° 0 mm 4 m/s 767 mmHg 67%
    07:00 +14°C° 0 mm 4 m/s 767 mmHg 62%
    08:00 +15°C° 0 mm 4 m/s 767 mmHg 57%
    09:00 +17°C° 0 mm 4 m/s 766 mmHg 54%
    10:00 +18°C° 0 mm 4 m/s 766 mmHg 51%
    11:00 +19°C° 0 mm 4 m/s 766 mmHg 48%
    12:00 +19°C° 0 mm 4 m/s 766 mmHg 47%
    13:00 +20°C° 0 mm 4 m/s 766 mmHg 46%
    14:00 +20°C° 0 mm 4 m/s 765 mmHg 44%
    15:00 +20°C° 0 mm 5 m/s 765 mmHg 46%
    16:00 +19°C° 0 mm 5 m/s 765 mmHg 48%
    17:00 +19°C° 0 mm 5 m/s 764 mmHg 50%
    18:00 +17°C° 0 mm 5 m/s 764 mmHg 54%
    19:00 +16°C° 0 mm 5 m/s 764 mmHg 58%
    20:00 +16°C° 0 mm 5 m/s 764 mmHg 62%
    21:00 +15°C° 0 mm 5 m/s 764 mmHg 66%
    22:00 +14°C° 0 mm 5 m/s 764 mmHg 70%
    23:00 +12°C° 0 mm 4 m/s 763 mmHg 75%

    12 Iunie, Vineri

    Timp Temperatura Precipitaţii Vânt Presiune Umiditate
    00:00 +12°C° 0 mm 4 m/s 763 mmHg 76%
    01:00 +12°C° 0 mm 3 m/s 763 mmHg 77%
    02:00 +11°C° 0 mm 3 m/s 763 mmHg 78%
    03:00 +11°C° 0 mm 3 m/s 762 mmHg 76%
    04:00 +12°C° 0 mm 3 m/s 762 mmHg 74%
    05:00 +13°C° 0 mm 2 m/s 762 mmHg 72%
    06:00 +13°C° 0 mm 3 m/s 762 mmHg 69%
    07:00 +14°C° 0 mm 3 m/s 761 mmHg 66%
    08:00 +16°C° 0 mm 3 m/s 761 mmHg 63%
    09:00 +15°C° 0 mm 4 m/s 761 mmHg 60%
    10:00 +17°C° 0 mm 4 m/s 760 mmHg 57%
    11:00 +18°C° 0 mm 4 m/s 760 mmHg 54%
    12:00 +18°C° 0 mm 4 m/s 760 mmHg 52%
    13:00 +19°C° 0 mm 4 m/s 760 mmHg 49%
    14:00 +19°C° 0 mm 5 m/s 759 mmHg 47%
    15:00 +19°C° 0 mm 5 m/s 759 mmHg 47%
    16:00 +19°C° 0 mm 4 m/s 759 mmHg 47%
    17:00 +19°C° 0 mm 4 m/s 758 mmHg 47%
    18:00 +18°C° 0 mm 4 m/s 758 mmHg 50%
    19:00 +17°C° 0 mm 4 m/s 758 mmHg 54%
    20:00 +15°C° 0 mm 4 m/s 758 mmHg 57%
    21:00 +14°C° 0 mm 3 m/s 758 mmHg 62%
    22:00 +13°C° 0 mm 3 m/s 758 mmHg 68%
    23:00 +13°C° 0 mm 2 m/s 758 mmHg 73%
    Arată mai mult